Tracking 29892 objects as of 21-Nov-2024
HD Live streaming from Space Station
objects crossing your sky now

FENGYUN 1C DEB

Track FENGYUN 1C DEB now!
10-day predictions


NORAD ID: 30670
Int'l Code: 1999-025AQC
Perigee: 818.5 km
Apogee: 876.6 km
Inclination: 98.8 °
Period: 101.7 minutes
Semi major axis: 7218 km
RCS: 0.0183 m2 (small)
Launch date: May 10, 1999
Source: People's Republic of China (PRC)
Launch site: Taiyaun Space Center, China (TSC)

Note: This is SATELLITE DEBRIS
Your satellite tracking list
Your tracking list is empty




NASA's NSSDC Master Catalog

Two Line Element Set (TLE):
1 30670U 99025AQC 24325.85478201  .00000346  00000-0  19766-3 0  9997
2 30670  98.7668  11.8231 0040208  94.7871 320.6283 14.15565617916784
Source of the keplerian elements: AFSPC